Starlink 31771

operational
NORAD ID: 59620 Int'l Des: 2024-080 Owner: SPXS Country: US Constellation: starlink
LEOCIRCULAR

About Starlink 31771

Description loading...

Live Position

Loading 3D Globe...

Upcoming Passes

Altitude History

Altitude vs Time

uPlot chart will show altitude changes over time

Two-Line Element Set

1 59620U 24080V 25257.42262390 .00081607 00000-0 23880-2 0 9990
2 59620 42.9991 312.5772 0007184 42.3609 317.7799 15.34273825 77589
Epoch: Sep 14, 2025 • Age: 35 hours

Current Status

Altitude 457.6 km
Velocity 7.64 km/s
Sub-Earth Point 26.47°N, 31.03°E
Launch Date Apr 28, 2024
Age 1.3 years
Type internet

Technical Details

Classification Payload
Mass 730.00 kg
Dry Mass 700.00 kg
Total Mass 730.00 kg
Length 0.30 m
Diameter 4.10 m
Span 29.00 m
Shape Box + pan
Manufacturer SPXS
Bus Type Starlink V2M
Phase Status In Orbit
Owner/State SPXS/US

Large Constellations

Loading constellations...